2023/01/13 00:00:00,32.3, 1.8
2023/01/13 00:10:00,32.2, 1.9
2023/01/13 00:20:00,32.2, 1.8
2023/01/13 00:30:00,32.2, 1.8
2023/01/13 00:40:00,32.2, 2.3
2023/01/13 00:50:00,32.2, 1.9
2023/01/13 01:00:00,32.2, 2.2
2023/01/13 01:10:00,32.2, 2.2
2023/01/13 01:20:00,32.2, 2.2
2023/01/13 01:30:00,32.2, 2.2
2023/01/13 01:40:00,32.3, 2.1
2023/01/13 01:50:00,32.2, 2.3
2023/01/13 02:00:00,32.3, 2.3
2023/01/13 02:10:00,32.2, 2.2
2023/01/13 02:20:00,32.2, 2.6
2023/01/13 02:30:00,32.3, 4.1
2023/01/13 02:40:00,32.1, 4.5
2023/01/13 02:50:00,31.7, 2.8
2023/01/13 03:00:00,31.6, 2.8
2023/01/13 03:10:00,31.5, 3.0
2023/01/13 03:20:00,31.4, 3.1
2023/01/13 03:30:00,31.4, 3.6
2023/01/13 03:40:00,31.4, 5.3
2023/01/13 03:50:00,31.2, 4.9
2023/01/13 04:00:00,31.1, 6.0
2023/01/13 04:10:00,31.4, 4.9
2023/01/13 04:20:00,31.3, 5.7
2023/01/13 04:30:00,31.2, 5.0
2023/01/13 04:40:00,31.1, 4.6
2023/01/13 04:50:00,31.1, 5.3
2023/01/13 05:00:00,31.1, 4.9
2023/01/13 05:10:00,31.2, 4.9
2023/01/13 05:20:00,31.2, 4.5
2023/01/13 05:30:00,31.1, 3.8
2023/01/13 05:40:00,31.0, 3.7
2023/01/13 05:50:00,31.1, 4.0
2023/01/13 06:00:00,31.4, 6.0
2023/01/13 06:10:00,31.6, 5.9
2023/01/13 06:20:00,31.8, 5.2
2023/01/13 06:30:00,31.6, 4.6
2023/01/13 06:40:00,31.4, 4.1
2023/01/13 06:50:00,31.4, 3.4
2023/01/13 07:00:00,31.3, 2.8
2023/01/13 07:10:00,31.2, 3.3
2023/01/13 07:20:00,31.1, 3.3
2023/01/13 07:30:00,31.2, 3.9
2023/01/13 07:40:00,30.9, 4.2
2023/01/13 07:50:00,30.7, 4.4
2023/01/13 08:00:00,30.8, 4.9
2023/01/13 08:10:00,30.6, 5.7
2023/01/13 08:20:00,30.6, 5.7
2023/01/13 08:30:00,30.7, 5.6
2023/01/13 08:40:00,30.6, 5.3
2023/01/13 08:50:00,30.6, 5.4
2023/01/13 09:00:00,30.5, 5.2
2023/01/13 09:10:00,30.5, 5.1
2023/01/13 09:20:00,30.3, 5.6
2023/01/13 09:30:00,30.2, 6.3
2023/01/13 09:40:00,30.2, 7.4
2023/01/13 09:50:00,30.1, 7.2
2023/01/13 10:00:00,29.9, 6.7
2023/01/13 10:10:00,30.1, 6.3
2023/01/13 10:20:00,30.1, 6.3
2023/01/13 10:30:00,30.2, 6.0
2023/01/13 10:40:00,30.1, 5.7
2023/01/13 10:50:00,30.3, 6.2
2023/01/13 11:00:00,30.2, 7.3
2023/01/13 11:10:00,30.0, 6.5
2023/01/13 11:20:00,30.0, 6.0
2023/01/13 11:30:00,30.0, 6.8
2023/01/13 11:40:00,29.9, 6.9
2023/01/13 11:50:00,29.9, 7.3
2023/01/13 12:00:00,29.7, 7.6
2023/01/13 12:10:00,29.5, 7.4
2023/01/13 12:20:00,29.3, 6.6
2023/01/13 12:30:00,29.3, 6.4
2023/01/13 12:40:00,29.3, 6.5
2023/01/13 12:50:00,29.3, 6.3
2023/01/13 13:00:00,29.3, 6.2
2023/01/13 13:10:00,29.0, 6.0
2023/01/13 13:20:00,28.5, 6.3
2023/01/13 13:30:00,28.5, 6.3
2023/01/13 13:40:00,28.5, 6.8
2023/01/13 13:50:00,28.5, 6.7
2023/01/13 14:00:00,28.5, 6.2
2023/01/13 14:10:00,28.5, 6.5
2023/01/13 14:20:00,28.2, 6.8
2023/01/13 14:30:00,28.0, 6.6
2023/01/13 14:40:00,27.9, 7.0
2023/01/13 14:50:00,27.6, 6.5
2023/01/13 15:00:00,27.3, 6.0
2023/01/13 15:10:00,27.5, 5.9
2023/01/13 15:20:00,27.0, 6.4
2023/01/13 15:30:00,26.9, 5.8
2023/01/13 15:40:00,26.9, 5.5
2023/01/13 15:50:00,26.8, 5.0
2023/01/13 16:00:00,26.8, 5.3
2023/01/13 16:10:00,26.8, 5.2
2023/01/13 16:20:00,26.7, 5.1
2023/01/13 16:30:00,26.7, 5.7
2023/01/13 16:40:00,26.7, 5.4
2023/01/13 16:50:00,26.7, 5.6
2023/01/13 17:00:00,26.6, 5.4
2023/01/13 17:10:00,26.6, 6.0
2023/01/13 17:20:00,26.5, 6.0
2023/01/13 17:30:00,26.3, 6.3
2023/01/13 17:40:00,26.2, 6.1
2023/01/13 17:50:00,26.0, 6.3
2023/01/13 18:00:00,25.8, 5.5
2023/01/13 18:10:00,25.6, 5.9
2023/01/13 18:20:00,25.6, 5.9
2023/01/13 18:30:00,25.6, 5.8
2023/01/13 18:40:00,25.5, 5.7
2023/01/13 18:50:00,25.3, 5.8
2023/01/13 19:00:00,25.1, 6.1
2023/01/13 19:10:00,25.1, 6.0
2023/01/13 19:20:00,24.6, 6.0
2023/01/13 19:30:00,24.4, 6.0
2023/01/13 19:40:00,24.4, 6.1
2023/01/13 19:50:00,24.3, 6.3
2023/01/13 20:00:00,24.3, 6.2
2023/01/13 20:10:00,24.2, 6.3
2023/01/13 20:20:00,23.6, 6.5
2023/01/13 20:30:00,23.6, 6.6
2023/01/13 20:40:00,23.6, 6.6
2023/01/13 20:50:00,23.5, 6.4
2023/01/13 21:00:00,23.4, 6.0
2023/01/13 21:10:00,23.4, 6.2
2023/01/13 21:20:00,23.3, 6.2
2023/01/13 21:30:00,23.2, 7.1
2023/01/13 21:40:00,23.1, 6.7
2023/01/13 21:50:00,22.9, 5.9
2023/01/13 22:00:00,22.8, 5.3
2023/01/13 22:10:00,22.8, 7.2
2023/01/13 22:20:00,22.7, 5.0
2023/01/13 22:30:00,22.5, 5.5
2023/01/13 22:40:00,22.3, 4.9
2023/01/13 22:50:00,22.3, 4.6
2023/01/13 23:00:00,22.1, 6.4
2023/01/13 23:10:00,21.9, 6.8
2023/01/13 23:20:00,21.8, 5.8
2023/01/13 23:30:00,21.8, 5.5
2023/01/13 23:40:00,21.8, 5.3
2023/01/13 23:50:00,21.8, 5.1
